owner,sensor,date,latitude,longitude,vertical_datum,wind_speed,wind_to_direction,wind_speed_of_gust,qcFlag 
TCOON,ioos:station:TCOON:005:1,2013-12-01T00:00:00Z,27.6346,-97.2370,0.0,3.6,119.0,5.2,'11111222,11111222,11111222' 
TCOON,ioos:station:TCOON:005:1,2013-12-01T00:06:00Z,27.6346,-97.2370,0.0,3.2,114.0,4.4,'11111222,11111222,11111222' 
TCOON,ioos:station:TCOON:005:1,2013-12-01T00:12:00Z,27.6346,-97.2370,0.0,2.8,120.0,3.8,'11111222,11111222,11111222' 
TCOON,ioos:station:TCOON:005:1,2013-12-01T00:18:00Z,27.6346,-97.2370,0.0,2.8,120.0,3.8,'11111222,11111222,11111222' 
TCOON,ioos:station:TCOON:005:1,2013-12-01T00:24:00Z,27.6346,-97.2370,0.0,3.0,123.0,3.8,'11111222,11111222,11111222' 
TCOON,ioos:station:TCOON:005:1,2013-12-01T00:30:00Z,27.6346,-97.2370,0.0,3.4,122.0,4.0,'11111222,11111222,11111222' 
TCOON,ioos:station:TCOON:005:1,2013-12-01T00:36:00Z,27.6346,-97.2370,0.0,3.4,118.0,4.6,'11111222,11111222,11111222' 
TCOON,ioos:station:TCOON:005:1,2013-12-01T00:42:00Z,27.6346,-97.2370,0.0,3.5,111.0,4.1,'11111222,11111222,11111222' 
TCOON,ioos:station:TCOON:005:1,2013-12-01T00:48:00Z,27.6346,-97.2370,0.0,3.6,105.0,4.5,'11111222,11111222,11111222' 
TCOON,ioos:station:TCOON:005:1,2013-12-01T00:54:00Z,27.6346,-97.2370,0.0,2.6,100.0,4.2,'11111222,11111222,11111222' 
TCOON,ioos:station:TCOON:005:1,2013-12-01T01:00:00Z,27.6346,-97.2370,0.0,2.5,81.0,3.0,'11111222,11111222,11111222' 
TCOON,ioos:station:TCOON:005:1,2013-12-01T01:06:00Z,27.6346,-97.2370,0.0,2.5,98.0,2.8,'11111222,11111222,11111222' 
TCOON,ioos:station:TCOON:005:1,2013-12-01T01:12:00Z,27.6346,-97.2370,0.0,2.7,111.0,3.4,'11111222,11111222,11111222' 
TCOON,ioos:station:TCOON:005:1,2013-12-01T01:18:00Z,27.6346,-97.2370,0.0,2.3,109.0,3.2,'11111222,11111222,11111222' 
TCOON,ioos:station:TCOON:005:1,2013-12-01T01:24:00Z,27.6346,-97.2370,0.0,1.9,111.0,2.4,'11111222,11111222,11111222' 
TCOON,ioos:station:TCOON:005:1,2013-12-01T01:30:00Z,27.6346,-97.2370,0.0,2.0,121.0,2.5,'11111222,11111222,11111222' 
TCOON,ioos:station:TCOON:005:1,2013-12-01T01:36:00Z,27.6346,-97.2370,0.0,3.1,124.0,4.2,'11111222,11111222,11111222' 
TCOON,ioos:station:TCOON:005:1,2013-12-01T01:42:00Z,27.6346,-97.2370,0.0,3.7,118.0,4.5,'11111222,11111222,11111222' 
TCOON,ioos:station:TCOON:005:1,2013-12-01T01:48:00Z,27.6346,-97.2370,0.0,3.9,116.0,5.0,'11111222,11111222,11111222' 
TCOON,ioos:station:TCOON:005:1,2013-12-01T01:54:00Z,27.6346,-97.2370,0.0,4.2,118.0,5.2,'11111222,11111222,11111222' 
TCOON,ioos:station:TCOON:005:1,2013-12-01T02:00:00Z,27.6346,-97.2370,0.0,4.6,123.0,5.3,'11111222,11111222,11111222' 
TCOON,ioos:station:TCOON:005:1,2013-12-01T02:06:00Z,27.6346,-97.2370,0.0,4.1,124.0,5.1,'11111222,11111222,11111222' 
TCOON,ioos:station:TCOON:005:1,2013-12-01T02:12:00Z,27.6346,-97.2370,0.0,4.3,123.0,5.4,'11111222,11111222,11111222' 
TCOON,ioos:station:TCOON:005:1,2013-12-01T02:18:00Z,27.6346,-97.2370,0.0,4.7,120.0,5.8,'11111222,11111222,11111222' 
TCOON,ioos:station:TCOON:005:1,2013-12-01T02:24:00Z,27.6346,-97.2370,0.0,5.1,124.0,6.0,'11111222,11111222,11111222' 
TCOON,ioos:station:TCOON:005:1,2013-12-01T02:30:00Z,27.6346,-97.2370,0.0,4.7,121.0,6.5,'11111222,11111222,11111222' 
TCOON,ioos:station:TCOON:005:1,2013-12-01T02:36:00Z,27.6346,-97.2370,0.0,4.1,123.0,5.6,'11111222,11111222,11111222' 
TCOON,ioos:station:TCOON:005:1,2013-12-01T02:42:00Z,27.6346,-97.2370,0.0,4.4,121.0,5.7,'11111222,11111222,11111222' 
TCOON,ioos:station:TCOON:005:1,2013-12-01T02:48:00Z,27.6346,-97.2370,0.0,3.7,122.0,5.3,'11111222,11111222,11111222' 
TCOON,ioos:station:TCOON:005:1,2013-12-01T02:54:00Z,27.6346,-97.2370,0.0,4.2,119.0,4.9,'11111222,11111222,11111222' 
TCOON,ioos:station:TCOON:005:1,2013-12-01T03:00:00Z,27.6346,-97.2370,0.0,4.1,121.0,5.4,'11111222,11111222,11111222' 
TCOON,ioos:station:TCOON:005:1,2013-12-01T03:06:00Z,27.6346,-97.2370,0.0,4.3,121.0,5.0,'11111222,11111222,11111222' 
TCOON,ioos:station:TCOON:005:1,2013-12-01T03:12:00Z,27.6346,-97.2370,0.0,4.3,119.0,5.3,'11111222,11111222,11111222' 
TCOON,ioos:station:TCOON:005:1,2013-12-01T03:18:00Z,27.6346,-97.2370,0.0,4.4,122.0,5.5,'11111222,11111222,11111222' 
TCOON,ioos:station:TCOON:005:1,2013-12-01T03:24:00Z,27.6346,-97.2370,0.0,4.4,123.0,5.9,'11111222,11111222,11111222' 
TCOON,ioos:station:TCOON:005:1,2013-12-01T03:30:00Z,27.6346,-97.2370,0.0,4.2,124.0,5.3,'11111222,11111222,11111222' 
TCOON,ioos:station:TCOON:005:1,2013-12-01T03:36:00Z,27.6346,-97.2370,0.0,4.3,126.0,5.4,'11111222,11111222,11111222' 
TCOON,ioos:station:TCOON:005:1,2013-12-01T03:42:00Z,27.6346,-97.2370,0.0,4.1,126.0,5.4,'11111222,11111222,11111222' 
TCOON,ioos:station:TCOON:005:1,2013-12-01T03:48:00Z,27.6346,-97.2370,0.0,4.2,130.0,5.4,'11111222,11111222,11111222' 
TCOON,ioos:station:TCOON:005:1,2013-12-01T03:54:00Z,27.6346,-97.2370,0.0,4.4,128.0,5.5,'11111222,11111222,11111222' 
TCOON,ioos:station:TCOON:005:1,2013-12-01T04:00:00Z,27.6346,-97.2370,0.0,4.6,131.0,6.2,'11111222,11111222,11111222' 
TCOON,ioos:station:TCOON:005:1,2013-12-01T04:06:00Z,27.6346,-97.2370,0.0,4.6,128.0,6.4,'11111222,11111222,11111222' 
TCOON,ioos:station:TCOON:005:1,2013-12-01T04:12:00Z,27.6346,-97.2370,0.0,4.7,130.0,6.6,'11111222,11111222,11111222' 
TCOON,ioos:station:TCOON:005:1,2013-12-01T04:18:00Z,27.6346,-97.2370,0.0,5.4,132.0,6.9,'11111222,11111222,11111222' 
TCOON,ioos:station:TCOON:005:1,2013-12-01T04:24:00Z,27.6346,-97.2370,0.0,4.3,136.0,6.5,'11111222,11111222,11111222' 
TCOON,ioos:station:TCOON:005:1,2013-12-01T04:30:00Z,27.6346,-97.2370,0.0,4.5,136.0,6.4,'11111222,11111222,11111222' 
TCOON,ioos:station:TCOON:005:1,2013-12-01T04:36:00Z,27.6346,-97.2370,0.0,4.7,131.0,6.2,'11111222,11111222,11111222' 
TCOON,ioos:station:TCOON:005:1,2013-12-01T04:42:00Z,27.6346,-97.2370,0.0,4.7,132.0,6.6,'11111222,11111222,11111222' 
TCOON,ioos:station:TCOON:005:1,2013-12-01T04:48:00Z,27.6346,-97.2370,0.0,4.3,134.0,5.3,'11111222,11111222,11111222' 
TCOON,ioos:station:TCOON:005:1,2013-12-01T04:54:00Z,27.6346,-97.2370,0.0,4.4,131.0,6.4,'11111222,11111222,11111222' 
TCOON,ioos:station:TCOON:005:1,2013-12-01T05:00:00Z,27.6346,-97.2370,0.0,3.9,135.0,6.6,'11111222,11111222,11111222' 
TCOON,ioos:station:TCOON:005:1,2013-12-01T05:06:00Z,27.6346,-97.2370,0.0,3.7,141.0,5.3,'11111222,11111222,11111222' 
TCOON,ioos:station:TCOON:005:1,2013-12-01T05:12:00Z,27.6346,-97.2370,0.0,2.6,142.0,4.7,'11111222,11111222,11111222' 
TCOON,ioos:station:TCOON:005:1,2013-12-01T05:18:00Z,27.6346,-97.2370,0.0,3.1,139.0,4.2,'11111222,11111222,11111222' 
TCOON,ioos:station:TCOON:005:1,2013-12-01T05:24:00Z,27.6346,-97.2370,0.0,2.8,144.0,4.0,'11111222,11111222,11111222' 
TCOON,ioos:station:TCOON:005:1,2013-12-01T05:30:00Z,27.6346,-97.2370,0.0,2.5,139.0,3.7,'11111222,11111222,11111222' 
TCOON,ioos:station:TCOON:005:1,2013-12-01T05:36:00Z,27.6346,-97.2370,0.0,2.3,134.0,3.4,'11111222,11111222,11111222' 
TCOON,ioos:station:TCOON:005:1,2013-12-01T05:42:00Z,27.6346,-97.2370,0.0,2.5,144.0,3.2,'11111222,11111222,11111222' 
TCOON,ioos:station:TCOON:005:1,2013-12-01T05:48:00Z,27.6346,-97.2370,0.0,1.8,154.0,2.8,'11111222,11111222,11111222' 
TCOON,ioos:station:TCOON:005:1,2013-12-01T05:54:00Z,27.6346,-97.2370,0.0,1.8,144.0,2.4,'11111222,11111222,11111222' 
TCOON,ioos:station:TCOON:005:1,2013-12-01T06:00:00Z,27.6346,-97.2370,0.0,1.7,146.0,2.5,'11111222,11111222,11111222' 
TCOON,ioos:station:TCOON:005:1,2013-12-01T06:06:00Z,27.6346,-97.2370,0.0,1.7,151.0,2.3,'11111222,11111222,11111222' 
TCOON,ioos:station:TCOON:005:1,2013-12-01T06:12:00Z,27.6346,-97.2370,0.0,1.4,156.0,2.0,'11111222,11111222,11111222' 
TCOON,ioos:station:TCOON:005:1,2013-12-01T06:18:00Z,27.6346,-97.2370,0.0,1.7,139.0,2.4,'11111222,11111222,11111222' 
TCOON,ioos:station:TCOON:005:1,2013-12-01T06:24:00Z,27.6346,-97.2370,0.0,2.1,129.0,2.7,'11111222,11111222,11111222' 
TCOON,ioos:station:TCOON:005:1,2013-12-01T06:30:00Z,27.6346,-97.2370,0.0,2.0,146.0,2.9,'11111222,11111222,11111222' 
TCOON,ioos:station:TCOON:005:1,2013-12-01T06:36:00Z,27.6346,-97.2370,0.0,1.9,146.0,2.8,'11111222,11111222,11111222' 
TCOON,ioos:station:TCOON:005:1,2013-12-01T06:42:00Z,27.6346,-97.2370,0.0,1.8,142.0,2.5,'11111222,11111222,11111222' 
TCOON,ioos:station:TCOON:005:1,2013-12-01T06:48:00Z,27.6346,-97.2370,0.0,1.6,144.0,2.3,'11111222,11111222,11111222' 
TCOON,ioos:station:TCOON:005:1,2013-12-01T06:54:00Z,27.6346,-97.2370,0.0,1.5,175.0,1.8,'11111222,11111222,11111222' 
TCOON,ioos:station:TCOON:005:1,2013-12-01T07:00:00Z,27.6346,-97.2370,0.0,1.5,179.0,1.7,'11111222,11111222,11111222' 
TCOON,ioos:station:TCOON:005:1,2013-12-01T07:06:00Z,27.6346,-97.2370,0.0,1.2,188.0,1.9,'11111222,11111222,11111222' 
TCOON,ioos:station:TCOON:005:1,2013-12-01T07:12:00Z,27.6346,-97.2370,0.0,1.2,215.0,1.4,'11111222,11111222,11111222' 
TCOON,ioos:station:TCOON:005:1,2013-12-01T07:18:00Z,27.6346,-97.2370,0.0,1.3,241.0,1.5,'11111222,11111222,11111222' 
TCOON,ioos:station:TCOON:005:1,2013-12-01T07:24:00Z,27.6346,-97.2370,0.0,1.2,228.0,1.9,'11111222,11111222,11111222' 
TCOON,ioos:station:TCOON:005:1,2013-12-01T07:30:00Z,27.6346,-97.2370,0.0,1.1,220.0,1.3,'11111222,11111222,11111222' 
TCOON,ioos:station:TCOON:005:1,2013-12-01T07:36:00Z,27.6346,-97.2370,0.0,1.3,234.0,1.6,'11111222,11111222,11111222' 
TCOON,ioos:station:TCOON:005:1,2013-12-01T07:42:00Z,27.6346,-97.2370,0.0,1.3,239.0,1.6,'11111222,11111222,11111222' 
TCOON,ioos:station:TCOON:005:1,2013-12-01T07:48:00Z,27.6346,-97.2370,0.0,1.2,241.0,1.5,'11111222,11111222,11111222' 
TCOON,ioos:station:TCOON:005:1,2013-12-01T07:54:00Z,27.6346,-97.2370,0.0,1.1,242.0,1.3,'11111222,11111222,11111222' 
TCOON,ioos:station:TCOON:005:1,2013-12-01T08:00:00Z,27.6346,-97.2370,0.0,1.2,250.0,1.4,'11111222,11111222,11111222' 
TCOON,ioos:station:TCOON:005:1,2013-12-01T08:06:00Z,27.6346,-97.2370,0.0,1.2,251.0,1.3,'11111222,11111222,11111222' 
TCOON,ioos:station:TCOON:005:1,2013-12-01T08:12:00Z,27.6346,-97.2370,0.0,1.5,263.0,1.6,'11111222,11111222,11111222' 
TCOON,ioos:station:TCOON:005:1,2013-12-01T08:18:00Z,27.6346,-97.2370,0.0,1.5,251.0,1.8,'11111222,11111222,11111222' 
TCOON,ioos:station:TCOON:005:1,2013-12-01T08:24:00Z,27.6346,-97.2370,0.0,1.5,247.0,1.8,'11111222,11111222,11111222' 
TCOON,ioos:station:TCOON:005:1,2013-12-01T08:30:00Z,27.6346,-97.2370,0.0,1.4,248.0,1.8,'11111222,11111222,11111222' 
TCOON,ioos:station:TCOON:005:1,2013-12-01T08:36:00Z,27.6346,-97.2370,0.0,1.4,246.0,1.6,'11111222,11111222,11111222' 
TCOON,ioos:station:TCOON:005:1,2013-12-01T08:42:00Z,27.6346,-97.2370,0.0,1.4,254.0,1.6,'11111222,11111222,11111222' 
TCOON,ioos:station:TCOON:005:1,2013-12-01T08:48:00Z,27.6346,-97.2370,0.0,1.4,244.0,1.6,'11111222,11111222,11111222' 
TCOON,ioos:station:TCOON:005:1,2013-12-01T08:54:00Z,27.6346,-97.2370,0.0,1.2,243.0,1.5,'11111222,11111222,11111222' 
TCOON,ioos:station:TCOON:005:1,2013-12-01T09:00:00Z,27.6346,-97.2370,0.0,1.2,232.0,1.5,'11111222,11111222,11111222' 
TCOON,ioos:station:TCOON:005:1,2013-12-01T09:06:00Z,27.6346,-97.2370,0.0,1.1,217.0,1.2,'11111222,11111222,11111222' 
TCOON,ioos:station:TCOON:005:1,2013-12-01T09:12:00Z,27.6346,-97.2370,0.0,1.1,214.0,1.2,'11111222,11111222,11111222' 
TCOON,ioos:station:TCOON:005:1,2013-12-01T09:18:00Z,27.6346,-97.2370,0.0,1.0,206.0,1.2,'11111222,11111222,11111222' 
TCOON,ioos:station:TCOON:005:1,2013-12-01T09:24:00Z,27.6346,-97.2370,0.0,1.0,200.0,1.2,'11111222,11111222,11111222' 
TCOON,ioos:station:TCOON:005:1,2013-12-01T09:30:00Z,27.6346,-97.2370,0.0,1.2,200.0,1.3,'11111222,11111222,11111222' 
TCOON,ioos:station:TCOON:005:1,2013-12-01T09:36:00Z,27.6346,-97.2370,0.0,1.2,205.0,1.3,'11111222,11111222,11111222' 
TCOON,ioos:station:TCOON:005:1,2013-12-01T09:42:00Z,27.6346,-97.2370,0.0,1.2,191.0,1.4,'11111222,11111222,11111222' 
TCOON,ioos:station:TCOON:005:1,2013-12-01T09:48:00Z,27.6346,-97.2370,0.0,1.2,174.0,1.4,'11111222,11111222,11111222' 
TCOON,ioos:station:TCOON:005:1,2013-12-01T09:54:00Z,27.6346,-97.2370,0.0,1.2,181.0,1.4,'11111222,11111222,11111222' 
TCOON,ioos:station:TCOON:005:1,2013-12-01T10:00:00Z,27.6346,-97.2370,0.0,0.9,175.0,1.3,'11111222,11111222,11111222' 
TCOON,ioos:station:TCOON:005:1,2013-12-01T10:06:00Z,27.6346,-97.2370,0.0,0.5,160.0,1.0,'11111222,11111222,11111222' 
TCOON,ioos:station:TCOON:005:1,2013-12-01T10:12:00Z,27.6346,-97.2370,0.0,0.6,166.0,0.8,'11111222,11111222,11111222' 
TCOON,ioos:station:TCOON:005:1,2013-12-01T10:18:00Z,27.6346,-97.2370,0.0,0.5,179.0,0.8,'11111222,11111222,11111222' 
TCOON,ioos:station:TCOON:005:1,2013-12-01T10:24:00Z,27.6346,-97.2370,0.0,0.1,185.0,0.6,'11111222,11111222,11111222' 
TCOON,ioos:station:TCOON:005:1,2013-12-01T10:30:00Z,27.6346,-97.2370,0.0,0.1,190.0,0.2,'11111222,11111222,11111222' 
TCOON,ioos:station:TCOON:005:1,2013-12-01T10:36:00Z,27.6346,-97.2370,0.0,0.5,318.0,0.7,'11111222,11111222,11111222' 
TCOON,ioos:station:TCOON:005:1,2013-12-01T10:42:00Z,27.6346,-97.2370,0.0,1.3,317.0,1.4,'11111222,11111222,11111222' 
TCOON,ioos:station:TCOON:005:1,2013-12-01T10:48:00Z,27.6346,-97.2370,0.0,0.9,318.0,1.3,'11111222,11111222,11111222' 
TCOON,ioos:station:TCOON:005:1,2013-12-01T10:54:00Z,27.6346,-97.2370,0.0,0.6,331.0,0.8,'11111222,11111222,11111222' 
TCOON,ioos:station:TCOON:005:1,2013-12-01T11:00:00Z,27.6346,-97.2370,0.0,0.5,0.0,1.2,'11111222,11111222,11111222' 
TCOON,ioos:station:TCOON:005:1,2013-12-01T11:06:00Z,27.6346,-97.2370,0.0,0.4,37.0,0.5,'11111222,11111222,11111222' 
TCOON,ioos:station:TCOON:005:1,2013-12-01T11:12:00Z,27.6346,-97.2370,0.0,0.6,32.0,0.8,'11111222,11111222,11111222' 
TCOON,ioos:station:TCOON:005:1,2013-12-01T11:18:00Z,27.6346,-97.2370,0.0,1.8,19.0,2.0,'11111222,11111222,11111222' 
TCOON,ioos:station:TCOON:005:1,2013-12-01T11:24:00Z,27.6346,-97.2370,0.0,1.9,16.0,2.2,'11111222,11111222,11111222' 
TCOON,ioos:station:TCOON:005:1,2013-12-01T11:30:00Z,27.6346,-97.2370,0.0,1.3,20.0,1.8,'11111222,11111222,11111222' 
TCOON,ioos:station:TCOON:005:1,2013-12-01T11:36:00Z,27.6346,-97.2370,0.0,0.6,34.0,1.2,'11111222,11111222,11111222' 
TCOON,ioos:station:TCOON:005:1,2013-12-01T11:42:00Z,27.6346,-97.2370,0.0,1.1,4.0,1.5,'11111222,11111222,11111222' 
TCOON,ioos:station:TCOON:005:1,2013-12-01T11:48:00Z,27.6346,-97.2370,0.0,1.1,52.0,1.5,'11111222,11111222,11111222' 
TCOON,ioos:station:TCOON:005:1,2013-12-01T11:54:00Z,27.6346,-97.2370,0.0,0.8,63.0,1.1,'11111222,11111222,11111222' 
TCOON,ioos:station:TCOON:005:1,2013-12-01T12:00:00Z,27.6346,-97.2370,0.0,1.1,91.0,1.1,'11111222,11111222,11111222' 
TCOON,ioos:station:TCOON:005:1,2013-12-01T12:06:00Z,27.6346,-97.2370,0.0,1.0,113.0,1.4,'11111222,11111222,11111222' 
TCOON,ioos:station:TCOON:005:1,2013-12-01T12:12:00Z,27.6346,-97.2370,0.0,0.7,101.0,0.9,'11111222,11111222,11111222' 
TCOON,ioos:station:TCOON:005:1,2013-12-01T12:18:00Z,27.6346,-97.2370,0.0,0.7,131.0,0.9,'11111222,11111222,11111222' 
TCOON,ioos:station:TCOON:005:1,2013-12-01T12:24:00Z,27.6346,-97.2370,0.0,0.5,137.0,0.9,'11111222,11111222,11111222' 
TCOON,ioos:station:TCOON:005:1,2013-12-01T12:30:00Z,27.6346,-97.2370,0.0,0.2,137.0,0.4,'11111222,11111222,11111222' 
TCOON,ioos:station:TCOON:005:1,2013-12-01T12:36:00Z,27.6346,-97.2370,0.0,0.9,63.0,0.9,'11111222,11111222,11111222' 
TCOON,ioos:station:TCOON:005:1,2013-12-01T12:42:00Z,27.6346,-97.2370,0.0,0.8,68.0,1.0,'11111222,11111222,11111222' 
TCOON,ioos:station:TCOON:005:1,2013-12-01T12:48:00Z,27.6346,-97.2370,0.0,0.8,68.0,0.8,'11111222,11111222,11111222' 
TCOON,ioos:station:TCOON:005:1,2013-12-01T12:54:00Z,27.6346,-97.2370,0.0,0.9,56.0,1.0,'11111222,11111222,11111222' 
TCOON,ioos:station:TCOON:005:1,2013-12-01T13:00:00Z,27.6346,-97.2370,0.0,0.9,71.0,1.0,'11111222,11111222,11111222' 
TCOON,ioos:station:TCOON:005:1,2013-12-01T13:06:00Z,27.6346,-97.2370,0.0,0.6,68.0,0.8,'11111222,11111222,11111222' 
TCOON,ioos:station:TCOON:005:1,2013-12-01T13:12:00Z,27.6346,-97.2370,0.0,0.3,64.0,0.6,'11111222,11111222,11111222' 
TCOON,ioos:station:TCOON:005:1,2013-12-01T13:18:00Z,27.6346,-97.2370,0.0,0.7,329.0,0.9,'11111222,11111222,11111222' 
TCOON,ioos:station:TCOON:005:1,2013-12-01T13:24:00Z,27.6346,-97.2370,0.0,0.3,16.0,0.5,'11111222,11111222,11111222' 
TCOON,ioos:station:TCOON:005:1,2013-12-01T13:30:00Z,27.6346,-97.2370,0.0,0.5,92.0,0.6,'11111222,11111222,11111222' 
TCOON,ioos:station:TCOON:005:1,2013-12-01T13:36:00Z,27.6346,-97.2370,0.0,0.8,117.0,1.0,'11111222,11111222,11111222' 
TCOON,ioos:station:TCOON:005:1,2013-12-01T13:42:00Z,27.6346,-97.2370,0.0,1.0,146.0,1.2,'11111222,11111222,11111222' 
TCOON,ioos:station:TCOON:005:1,2013-12-01T13:48:00Z,27.6346,-97.2370,0.0,1.0,132.0,1.3,'11111222,11111222,11111222' 
TCOON,ioos:station:TCOON:005:1,2013-12-01T13:54:00Z,27.6346,-97.2370,0.0,1.3,121.0,1.4,'11111222,11111222,11111222' 
TCOON,ioos:station:TCOON:005:1,2013-12-01T14:00:00Z,27.6346,-97.2370,0.0,1.0,136.0,1.4,'11111222,11111222,11111222' 
TCOON,ioos:station:TCOON:005:1,2013-12-01T14:06:00Z,27.6346,-97.2370,0.0,1.2,134.0,1.3,'11111222,11111222,11111222' 
TCOON,ioos:station:TCOON:005:1,2013-12-01T14:12:00Z,27.6346,-97.2370,0.0,0.8,143.0,1.2,'11111222,11111222,11111222' 
TCOON,ioos:station:TCOON:005:1,2013-12-01T14:18:00Z,27.6346,-97.2370,0.0,0.6,135.0,0.9,'11111222,11111222,11111222' 
TCOON,ioos:station:TCOON:005:1,2013-12-01T14:24:00Z,27.6346,-97.2370,0.0,1.0,164.0,1.4,'11111222,11111222,11111222' 
TCOON,ioos:station:TCOON:005:1,2013-12-01T14:30:00Z,27.6346,-97.2370,0.0,1.2,172.0,1.6,'11111222,11111222,11111222' 
TCOON,ioos:station:TCOON:005:1,2013-12-01T14:36:00Z,27.6346,-97.2370,0.0,1.3,176.0,1.7,'11111222,11111222,11111222' 
TCOON,ioos:station:TCOON:005:1,2013-12-01T14:42:00Z,27.6346,-97.2370,0.0,1.5,190.0,2.0,'11111222,11111222,11111222' 
TCOON,ioos:station:TCOON:005:1,2013-12-01T14:48:00Z,27.6346,-97.2370,0.0,2.0,189.0,2.3,'11111222,11111222,11111222' 
TCOON,ioos:station:TCOON:005:1,2013-12-01T14:54:00Z,27.6346,-97.2370,0.0,2.4,192.0,2.8,'11111222,11111222,11111222' 
TCOON,ioos:station:TCOON:005:1,2013-12-01T15:00:00Z,27.6346,-97.2370,0.0,2.6,195.0,3.1,'11111222,11111222,11111222' 
TCOON,ioos:station:TCOON:005:1,2013-12-01T15:06:00Z,27.6346,-97.2370,0.0,2.5,191.0,3.1,'11111222,11111222,11111222' 
TCOON,ioos:station:TCOON:005:1,2013-12-01T15:12:00Z,27.6346,-97.2370,0.0,2.0,203.0,3.4,'11111222,11111222,11111222' 
TCOON,ioos:station:TCOON:005:1,2013-12-01T15:18:00Z,27.6346,-97.2370,0.0,2.2,209.0,2.7,'11111222,11111222,11111222' 
TCOON,ioos:station:TCOON:005:1,2013-12-01T15:24:00Z,27.6346,-97.2370,0.0,2.5,217.0,2.9,'11111222,11111222,11111222' 
TCOON,ioos:station:TCOON:005:1,2013-12-01T15:30:00Z,27.6346,-97.2370,0.0,2.2,221.0,3.0,'11111222,11111222,11111222' 
TCOON,ioos:station:TCOON:005:1,2013-12-01T15:36:00Z,27.6346,-97.2370,0.0,2.1,222.0,2.8,'11111222,11111222,11111222' 
TCOON,ioos:station:TCOON:005:1,2013-12-01T15:42:00Z,27.6346,-97.2370,0.0,2.2,214.0,2.8,'11111222,11111222,11111222' 
TCOON,ioos:station:TCOON:005:1,2013-12-01T15:48:00Z,27.6346,-97.2370,0.0,2.5,213.0,3.1,'11111222,11111222,11111222' 
TCOON,ioos:station:TCOON:005:1,2013-12-01T15:54:00Z,27.6346,-97.2370,0.0,2.5,211.0,3.1,'11111222,11111222,11111222' 
TCOON,ioos:station:TCOON:005:1,2013-12-01T16:00:00Z,27.6346,-97.2370,0.0,2.5,208.0,3.0,'11111222,11111222,11111222' 
TCOON,ioos:station:TCOON:005:1,2013-12-01T16:06:00Z,27.6346,-97.2370,0.0,2.6,210.0,3.0,'11111222,11111222,11111222' 
TCOON,ioos:station:TCOON:005:1,2013-12-01T16:12:00Z,27.6346,-97.2370,0.0,2.4,211.0,3.0,'11111222,11111222,11111222' 
TCOON,ioos:station:TCOON:005:1,2013-12-01T16:18:00Z,27.6346,-97.2370,0.0,2.4,212.0,2.9,'11111222,11111222,11111222' 
TCOON,ioos:station:TCOON:005:1,2013-12-01T16:24:00Z,27.6346,-97.2370,0.0,2.6,215.0,3.2,'11111222,11111222,11111222' 
TCOON,ioos:station:TCOON:005:1,2013-12-01T16:30:00Z,27.6346,-97.2370,0.0,2.5,215.0,3.0,'11111222,11111222,11111222' 
TCOON,ioos:station:TCOON:005:1,2013-12-01T16:36:00Z,27.6346,-97.2370,0.0,2.3,213.0,3.1,'11111222,11111222,11111222' 
TCOON,ioos:station:TCOON:005:1,2013-12-01T16:42:00Z,27.6346,-97.2370,0.0,2.8,219.0,3.3,'11111222,11111222,11111222' 
TCOON,ioos:station:TCOON:005:1,2013-12-01T16:48:00Z,27.6346,-97.2370,0.0,2.6,215.0,3.3,'11111222,11111222,11111222' 
TCOON,ioos:station:TCOON:005:1,2013-12-01T16:54:00Z,27.6346,-97.2370,0.0,2.3,214.0,3.3,'11111222,11111222,11111222' 
TCOON,ioos:station:TCOON:005:1,2013-12-01T17:00:00Z,27.6346,-97.2370,0.0,3.1,217.0,3.5,'11111222,11111222,11111222' 
TCOON,ioos:station:TCOON:005:1,2013-12-01T17:06:00Z,27.6346,-97.2370,0.0,2.5,213.0,3.5,'11111222,11111222,11111222' 
TCOON,ioos:station:TCOON:005:1,2013-12-01T17:12:00Z,27.6346,-97.2370,0.0,3.3,227.0,4.3,'11111222,11111222,11111222' 
TCOON,ioos:station:TCOON:005:1,2013-12-01T17:18:00Z,27.6346,-97.2370,0.0,3.1,224.0,3.7,'11111222,11111222,11111222' 
TCOON,ioos:station:TCOON:005:1,2013-12-01T17:24:00Z,27.6346,-97.2370,0.0,2.9,222.0,4.0,'11111222,11111222,11111222' 
TCOON,ioos:station:TCOON:005:1,2013-12-01T17:30:00Z,27.6346,-97.2370,0.0,2.7,219.0,3.9,'11111222,11111222,11111222' 
TCOON,ioos:station:TCOON:005:1,2013-12-01T17:36:00Z,27.6346,-97.2370,0.0,3.2,218.0,3.8,'11111222,11111222,11111222' 
TCOON,ioos:station:TCOON:005:1,2013-12-01T17:42:00Z,27.6346,-97.2370,0.0,3.0,211.0,4.0,'11111222,11111222,11111222' 
TCOON,ioos:station:TCOON:005:1,2013-12-01T17:48:00Z,27.6346,-97.2370,0.0,3.0,219.0,4.1,'11111222,11111222,11111222' 
TCOON,ioos:station:TCOON:005:1,2013-12-01T17:54:00Z,27.6346,-97.2370,0.0,3.4,204.0,4.6,'11111222,11111222,11111222' 
TCOON,ioos:station:TCOON:005:1,2013-12-01T18:00:00Z,27.6346,-97.2370,0.0,4.6,190.0,6.1,'11111222,11111222,11111222' 
TCOON,ioos:station:TCOON:005:1,2013-12-01T18:06:00Z,27.6346,-97.2370,0.0,5.1,153.0,6.7,'11111222,11111222,11111222' 
TCOON,ioos:station:TCOON:005:1,2013-12-01T18:12:00Z,27.6346,-97.2370,0.0,5.6,161.0,7.5,'11111222,11111222,11111222' 
TCOON,ioos:station:TCOON:005:1,2013-12-01T18:18:00Z,27.6346,-97.2370,0.0,5.2,165.0,6.7,'11111222,11111222,11111222' 
TCOON,ioos:station:TCOON:005:1,2013-12-01T18:24:00Z,27.6346,-97.2370,0.0,4.9,180.0,6.7,'11111222,11111222,11111222' 
TCOON,ioos:station:TCOON:005:1,2013-12-01T18:30:00Z,27.6346,-97.2370,0.0,5.8,180.0,6.8,'11111222,11111222,11111222' 
TCOON,ioos:station:TCOON:005:1,2013-12-01T18:36:00Z,27.6346,-97.2370,0.0,5.5,167.0,6.7,'11111222,11111222,11111222' 
TCOON,ioos:station:TCOON:005:1,2013-12-01T18:42:00Z,27.6346,-97.2370,0.0,4.9,169.0,6.3,'11111222,11111222,11111222' 
TCOON,ioos:station:TCOON:005:1,2013-12-01T18:48:00Z,27.6346,-97.2370,0.0,5.4,179.0,6.2,'11111222,11111222,11111222' 
TCOON,ioos:station:TCOON:005:1,2013-12-01T18:54:00Z,27.6346,-97.2370,0.0,5.2,176.0,6.1,'11111222,11111222,11111222' 
TCOON,ioos:station:TCOON:005:1,2013-12-01T19:00:00Z,27.6346,-97.2370,0.0,4.5,184.0,6.5,'11111222,11111222,11111222' 
TCOON,ioos:station:TCOON:005:1,2013-12-01T19:06:00Z,27.6346,-97.2370,0.0,5.2,174.0,6.7,'11111222,11111222,11111222' 
TCOON,ioos:station:TCOON:005:1,2013-12-01T19:12:00Z,27.6346,-97.2370,0.0,4.9,189.0,6.3,'11111222,11111222,11111222' 
TCOON,ioos:station:TCOON:005:1,2013-12-01T19:18:00Z,27.6346,-97.2370,0.0,4.8,164.0,6.7,'11111222,11111222,11111222' 
TCOON,ioos:station:TCOON:005:1,2013-12-01T19:24:00Z,27.6346,-97.2370,0.0,5.6,172.0,6.4,'11111222,11111222,11111222' 
TCOON,ioos:station:TCOON:005:1,2013-12-01T19:30:00Z,27.6346,-97.2370,0.0,5.2,159.0,6.9,'11111222,11111222,11111222' 
TCOON,ioos:station:TCOON:005:1,2013-12-01T19:36:00Z,27.6346,-97.2370,0.0,5.4,168.0,7.3,'11111222,11111222,11111222' 
TCOON,ioos:station:TCOON:005:1,2013-12-01T19:42:00Z,27.6346,-97.2370,0.0,4.5,166.0,7.5,'11111222,11111222,11111222' 
TCOON,ioos:station:TCOON:005:1,2013-12-01T19:48:00Z,27.6346,-97.2370,0.0,4.6,163.0,6.3,'11111222,11111222,11111222' 
TCOON,ioos:station:TCOON:005:1,2013-12-01T19:54:00Z,27.6346,-97.2370,0.0,5.1,163.0,6.7,'11111222,11111222,11111222' 
TCOON,ioos:station:TCOON:005:1,2013-12-01T20:00:00Z,27.6346,-97.2370,0.0,4.5,168.0,6.7,'11111222,11111222,11111222' 
TCOON,ioos:station:TCOON:005:1,2013-12-01T20:06:00Z,27.6346,-97.2370,0.0,5.0,165.0,6.7,'11111222,11111222,11111222' 
TCOON,ioos:station:TCOON:005:1,2013-12-01T20:12:00Z,27.6346,-97.2370,0.0,4.3,170.0,6.2,'11111222,11111222,11111222' 
TCOON,ioos:station:TCOON:005:1,2013-12-01T20:18:00Z,27.6346,-97.2370,0.0,4.2,159.0,5.6,'11111222,11111222,11111222' 